This demonstration page uses our WeatherBlox Daily Observations layout. Learn more.

Hourly Observations for October 16, 2015

Temp ( °F °C ) Dew Point ( °F °C ) Humidity (%) Winds ( mph kmh ) Pressure ( in mb ) Visibility ( mi km ) Precip ( " mm )
12:15 am 00:15 Clear 40 4.5 31 -0.8 69 69 Calm 30.53 1034 10 16.0934 0 0
12:35 am 00:35 Clear 40 4.4 31 -0.7 70 70 NNW 3 6 30.53 1034 10 16.0934 0 0
12:55 am 00:55 Clear 40 4.4 31 -0.7 70 70 NW 5 7 30.53 1034 10 16.0934 0 0
1:15 am 01:15 Clear 39 3.7 30 -1 72 72 NW 5 7 30.53 1034 10 16.0934 0 0
1:35 am 01:35 Clear 38 3.2 30 -1.1 74 74 NW 3 6 30.56 1035 10 16.0934 0 0
1:55 am 01:55 Clear 37 2.7 30 -1.2 76 76 Calm 30.56 1035 10 16.0934 0 0
2:15 am 02:15 Clear 37 3 31 -0.8 76 76 NNW 3 6 30.56 1035 10 16.0934 0 0
2:35 am 02:35 Clear 36 2.3 29 -1.4 77 77 NNW 3 6 30.56 1035 10 16.0934 0 0
2:55 am 02:55 Clear 37 2.5 29 -1.4 76 76 N 6 9 30.56 1035 10 16.0934 0 0
3:15 am 03:15 Clear 36 2 30 -1.3 79 79 N 3 6 30.56 1035 10 16.0934 0 0
3:35 am 03:35 Clear 36 2 30 -1.2 80 80 N 3 6 30.56 1035 10 16.0934 0 0
3:55 am 03:55 Clear 35 1.8 29 -1.4 80 80 N 5 7 30.56 1035 10 16.0934 0 0
4:15 am 04:15 Clear 35 1.6 30 -1.3 81 81 NNW 3 6 30.56 1035 10 16.0934 0 0
4:35 am 04:35 Clear 38 3.2 30 -1 74 74 Calm 30.56 1035 10 16.0934 0 0
4:55 am 04:55 Clear 37 2.5 30 -1.2 77 77 Calm 30.56 1035 10 16.0934 0 0
5:15 am 05:15 Clear 34 1.2 29 -1.5 82 82 Calm 30.56 1035 10 16.0934 0 0
5:35 am 05:35 Clear 35 1.7 29 -1.5 80 80 NW 3 6 30.56 1035 10 16.0934 0 0
5:55 am 05:55 Clear 35 1.4 29 -1.5 81 81 NNW 3 6 30.56 1035 10 16.0934 0 0
6:15 am 06:15 Clear 35 1.4 29 -1.8 80 80 NNW 3 6 30.56 1035 10 16.0934 0 0
6:35 am 06:35 Clear 32 0 28 -2.3 85 85 NW 3 6 30.59 1036 10 16.0934 0 0
6:55 am 06:55 Clear 32 0.1 28 -2 86 86 Calm 30.62 1037 10 16.0934 0 0
7:15 am 07:15 Clear 32 0.1 28 -2.4 83 83 Calm 30.62 1037 10 16.0934 0 0
7:35 am 07:35 Clear 32 0 28 -2.1 86 86 NW 3 6 30.62 1037 10 16.0934 0 0
7:55 am 07:55 Sunny 32 0.1 28 -2.2 85 85 Calm 30.62 1037 10 16.0934 0 0
8:15 am 08:15 Sunny 32 -0.2 27 -2.6 84 84 Calm 30.62 1037 10 16.0934 0 0
8:35 am 08:35 Sunny 33 0.6 29 -1.4 87 87 Calm 30.62 1037 10 16.0934 0 0
8:55 am 08:55 Sunny 37 2.6 30 -0.9 78 78 Calm 30.59 1036 10 16.0934 0 0
9:15 am 09:15 Sunny 40 4.4 31 -0.7 70 70 Calm 30.62 1037 10 16.0934 0 0
9:35 am 09:35 Sunny 42 5.8 30 -1 62 62 Calm 30.56 1035 10 16.0934 0 0
9:55 am 09:55 Sunny 45 7.3 30 -1.3 55 55 Calm 30.59 1036 10 16.0934 0 0
10:15 am 10:15 Sunny 48 8.7 29 -1.7 48 48 Calm 30.56 1035 10 16.0934 0 0
10:30 am 10:30 Sunny 49 9.7 28 -2.3 43 43 E 3 6 30.53 1034 10 16.0934 0 0
10:55 am 10:55 Sunny 52 11 26 -3.1 37 37 ESE 7 11 30.5 1033 10 16.0934 0 0
11:15 am 11:15 Sunny 53 11.6 25 -3.8 34 34 SE 6 9 30.5 1033 10 16.0934 0 0
11:35 am 11:35 Sunny 54 12.3 24 -4.7 30 30 SSE 6 9 30.5 1033 10 16.0934 0 0
11:55 am 11:55 Sunny 55 12.8 23 -4.8 29 29 SE 3 6 30.5 1033 10 16.0934 0 0
12:15 pm 12:15 Sunny 56 13.2 23 -5.1 28 28 SE 3 6 30.48 1032 10 16.0934 0 0
12:35 pm 12:35 Sunny 57 13.7 22 -5.3 27 27 ESE 5 7 30.45 1031 10 16.0934 0 0
12:55 pm 12:55 Sunny 57 14 23 -5.2 26 26 SSW 6 9 30.45 1031 10 16.0934 0 0
1:15 pm 13:15 Sunny 58 14.5 22 -5.6 25 25 SSE 3 6 30.45 1031 10 16.0934 0 0
1:35 pm 13:35 Sunny 59 15.1 22 -5.4 24 24 ESE 5 7 30.42 1030 10 16.0934 0 0
1:55 pm 13:55 Sunny 60 15.4 23 -5.2 24 24 ESE 3 6 30.42 1030 10 16.0934 0 0
2:15 pm 14:15 Sunny 60 15.6 23 -5 24 24 S 5 7 30.39 1029 10 16.0934 0 0
2:35 pm 14:35 Sunny 60 15.6 23 -5.1 24 24 S 3 6 30.39 1029 10 16.0934 0 0
2:55 pm 14:55 Sunny 61 16.2 23 -5 23 23 S 9 15 30.36 1028 10 16.0934 0 0
3:15 pm 15:15 Sunny 61 16.2 23 -5 23 23 S 8 13 30.36 1028 10 16.0934 0 0
3:35 pm 15:35 Sunny 62 16.6 24 -4.6 23 23 SSW 12 19 30.33 1027 10 16.0934 0 0
3:55 pm 15:55 Sunny 63 17 24 -4.5 23 23 SSE 5 7 30.33 1027 10 16.0934 0 0
4:15 pm 16:15 Sunny 62 16.9 24 -4.7 23 23 S 10 17 30.3 1026 10 16.0934 0 0
4:35 pm 16:35 Sunny 62 16.5 23 -4.9 23 23 S 9 15 30.3 1026 10 16.0934 0 0
4:55 pm 16:55 Sunny 62 16.6 23 -4.9 23 23 SSE 8 13 30.3 1026 10 16.0934 0 0
5:15 pm 17:15 Sunny 62 16.6 23 -4.8 23 23 S 8 13 30.3 1026 10 16.0934 0 0
5:35 pm 17:35 Sunny 61 16.3 24 -4.7 23 23 S 7 11 30.3 1026 10 16.0934 0 0
5:55 pm 17:55 Sunny 61 16.1 24 -4.5 24 24 S 10 17 30.27 1025 10 16.0934 0 0
6:15 pm 18:15 Sunny 60 15.6 24 -4.5 25 25 SSE 8 13 30.27 1025 10 16.0934 0 0
6:35 pm 18:35 Sunny 58 14.5 25 -4 28 28 SSE 6 9 30.3 1026 10 16.0934 0 0
6:55 pm 18:55 Sunny 55 12.8 25 -4 31 31 SSE 6 9 30.3 1026 10 16.0934 0 0
7:15 pm 19:15 Clear 52 11 24 -4.2 34 34 SE 7 11 30.33 1027 10 16.0934 0 0
7:35 pm 19:35 Clear 47 8.5 24 -4.5 40 40 SE 6 9 30.33 1027 10 16.0934 0 0
7:55 pm 19:55 Clear 48 9.1 24 -4.2 39 39 SE 8 13 30.33 1027 7 11.26538 0 0
8:15 pm 20:15 Clear 48 8.7 24 -4.2 40 40 SE 8 13 30.33 1027 10 16.0934 0 0
8:35 pm 20:35 Clear 46 8 24 -4.2 42 42 SE 7 11 30.39 1029 10 16.0934 0 0
8:55 pm 20:55 Clear 46 7.7 25 -3.9 44 44 SSE 9 15 30.36 1028 10 16.0934 0 0
9:15 pm 21:15 Clear 46 8 25 -3.7 44 44 SSE 8 13 30.36 1028 10 16.0934 0 0
9:35 pm 21:35 Clear 46 7.8 26 -3.5 45 45 SE 8 13 30.39 1029 10 16.0934 0 0
9:55 pm 21:55 Clear 44 6.8 26 -3.5 48 48 SE 8 13 30.36 1028 10 16.0934 0 0
10:15 pm 22:15 Clear 42 5.8 25 -3.7 51 51 SE 7 11 30.39 1029 10 16.0934 0 0
10:35 pm 22:35 Clear 43 5.9 25 -3.8 50 50 SE 8 13 30.39 1029 10 16.0934 0 0
10:55 pm 22:55 Clear 42 5.6 26 -3.6 52 52 SSE 8 13 30.39 1029 10 16.0934 0 0
11:15 pm 23:15 Clear 43 6 26 -3.5 51 51 SSE 9 15 30.39 1029 10 16.0934 0 0
11:35 pm 23:35 Clear 44 6.5 25 -3.8 48 48 SSE 9 15 30.39 1029 10 16.0934 0 0
11:55 pm 23:55 Clear 44 6.8 25 -4 46 46 SSE 9 15 30.39 1029 10 16.0934 0 0

Powered by AerisWeather